Weather History for Page, AZ

Change the Weather History Date:

Monday, January 21, 2013

  Actual Average Record
Temperature  
Mean Temperature 33 °F -  
Max Temperature 45 °F 44 °F 60 °F (1981)
Min Temperature 21 °F 27 °F 9 °F (1963)
Degree Days  
Heating Degree Days 32    
Moisture  
Dew Point 16 °F    
Average Humidity 52    
Maximum Humidity 74    
Minimum Humidity 21    
Precipitation  
Precipitation 0.00 in - - ()
Sea Level Pressure  
Sea Level Pressure 30.37 in    
Wind  
Wind Speed 1 mph (NE)    
Max Wind Speed 5 mph    
Max Gust Speed -    
Visibility 9 miles    
Events      
Averages and records for this station are not official NWS values.
T = Trace of Precipitation, MM = Missing Value Source: NWS Daily Summary

Daily Weather History Graph

Daily Weather History Graph

Search for Another Location

Airport:

Trip Planner

Search our weather history database for the weather conditions in past years. The results will help you decide how hot, cold, wet, or windy it might be!

Date:

Astronomy

Jan. 21, 2013 Rise Set
Actual Time 7:35 AM MST 5:39 PM MST
Civil Twilight 7:07 AM MST 6:07 PM MST
Nautical Twilight 6:35 AM MST 6:39 PM MST
Astronomical Twilight 6:04 AM MST 7:09 PM MST
Moon 1:22 PM MST (1/21) 3:06 AM MST (1/21)
Length of Visible Light 11h 00m
Length of Day
10h 04m
Waxing Gibbous, 75% of the Moon is Illuminated
Jan 21
Waxing Gibbous
Jan 26
Full
Feb 3
Last Quarter
Feb 10
New
Feb 17
First Quarter

Hourly Weather History & Observations

Time (MST) Temp. Windchill Dew Point Humidity Pressure Visibility Wind Dir Wind Speed Gust Speed Precip Events Conditions
12:53 AM 28.0 °F - 16.0 °F 61% 30.35 in 5.0 mi Calm Calm - N/A   Haze
1:53 AM 28.9 °F - 15.1 °F 56% 30.34 in 10.0 mi Calm Calm - N/A   Clear
2:53 AM 27.0 °F - 15.1 °F 61% 30.35 in 10.0 mi Calm Calm - N/A   Clear
3:53 AM 25.0 °F - 16.0 °F 69% 30.36 in 10.0 mi Calm Calm - N/A   Clear
4:53 AM 24.1 °F - 15.1 °F 69% 30.36 in 10.0 mi Calm Calm - N/A   Clear
5:53 AM 24.1 °F - 15.1 °F 69% 30.39 in 10.0 mi Calm Calm - N/A   Clear
6:53 AM 23.0 °F - 15.1 °F 72% 30.41 in 6.0 mi Calm Calm - N/A   Haze
7:42 AM 21.2 °F - 14.0 °F 74% 30.36 in 2.5 mi Calm Calm - N/A   Haze
7:50 AM 21.2 °F - 14.0 °F 74% 30.36 in 8.0 mi Calm Calm - N/A   Clear
7:53 AM 23.0 °F - 14.0 °F 68% 30.42 in 5.0 mi Calm Calm - N/A   Haze
8:53 AM 30.0 °F - 16.0 °F 56% 30.43 in 10.0 mi Calm Calm - N/A   Clear
9:53 AM 32.0 °F 28.7 °F 17.1 °F 54% 30.45 in 10.0 mi North 3.5 mph - N/A   Clear
10:53 AM 34.0 °F 29.8 °F 18.0 °F 52% 30.46 in 10.0 mi North 4.6 mph - N/A   Clear
11:53 AM 37.9 °F - 19.0 °F 47% 30.43 in 10.0 mi Calm Calm - N/A   Clear
12:53 PM 39.9 °F - 18.0 °F 41% 30.40 in 10.0 mi Calm Calm - N/A   Clear
1:53 PM 42.1 °F 40.2 °F 18.0 °F 38% 30.36 in 10.0 mi East 3.5 mph - N/A   Clear
2:53 PM 42.1 °F 39.2 °F 17.1 °F 37% 30.35 in 10.0 mi NNE 4.6 mph - N/A   Clear
3:53 PM 44.1 °F 42.5 °F 16.0 °F 32% 30.33 in 10.0 mi NE 3.5 mph - N/A   Clear
4:53 PM 44.1 °F - 17.1 °F 34% 30.33 in 10.0 mi Calm Calm - N/A   Clear
5:53 PM 39.0 °F - 17.1 °F 41% 30.34 in 10.0 mi Calm Calm - N/A   Clear
6:53 PM 36.0 °F - 17.1 °F 46% 30.36 in 10.0 mi Calm Calm - N/A   Clear
7:53 PM 36.0 °F 33.3 °F 15.1 °F 43% 30.36 in 10.0 mi SE 3.5 mph - N/A   Clear
8:53 PM 33.1 °F - 16.0 °F 50% 30.36 in 4.0 mi Calm Calm - N/A   Haze
9:43 PM 32.0 °F - 15.8 °F 51% 30.32 in 2.0 mi Calm Calm - N/A   Haze
9:53 PM 33.1 °F - 17.1 °F 52% 30.36 in 6.0 mi Calm Calm - N/A   Haze
10:53 PM 30.9 °F - 15.1 °F 52% 30.37 in 10.0 mi Calm Calm - N/A   Clear
11:53 PM 30.0 °F - 15.1 °F 54% 30.36 in 10.0 mi Calm Calm - N/A   Clear